GFSFLT1_prec_pwat_336.txt.gz
Precipitable_Water
1.10 1.21 1.32 1.37 1.42 1.45 1.49 1.62 1.65 1.67 1.74 1.74 1.81 1.82 1.84 1.85 1.92 1.83 1.84 1.91 2.00 2.06 2.08 2.07 2.14 2.15 2.22 2.22 1.98 1.77 1.73 1.72 1.57
1.00 1.14 1.23 1.34 1.42 1.47 1.44 1.53 1.59 1.63 1.72 1.74 1.74 1.78 1.81 1.81 1.87 1.86 1.97 2.05 2.08 2.05 2.12 2.10 2.20 2.21 2.02 1.88 1.78 1.77 1.65 1.46 1.40
0.95 1.09 1.19 1.29 1.38 1.38 1.45 1.52 1.58 1.62 1.72 1.73 1.80 1.76 1.80 1.83 1.84 1.88 1.89 1.93 1.97 2.15 2.17 2.09 2.01 1.91 1.84 1.78 1.62 1.47 1.37 1.28 1.28
0.87 0.93 1.08 1.19 1.25 1.34 1.42 1.47 1.48 1.50 1.67 1.73 1.72 1.77 1.80 1.78 1.83 1.92 2.03 2.06 2.03 1.99 1.93 1.91 1.84 1.81 1.69 1.46 1.32 1.29 1.26 1.21 1.17
0.90 1.00 1.04 1.15 1.21 1.26 1.29 1.32 1.40 1.46 1.54 1.64 1.72 1.77 1.82 1.86 1.91 1.89 1.90 1.88 1.85 1.88 1.95 1.82 1.77 1.59 1.30 1.26 1.26 1.25 1.18 1.07 1.04
0.89 0.96 1.03 1.12 1.13 1.13 1.19 1.24 1.34 1.41 1.50 1.58 1.65 1.73 1.77 1.87 1.90 1.91 1.89 1.79 1.84 1.81 1.79 1.67 1.51 1.24 1.21 1.21 1.19 1.10 1.05 0.95 0.88
0.87 0.84 0.91 0.95 0.98 1.02 1.10 1.22 1.30 1.36 1.42 1.54 1.54 1.65 1.67 1.77 1.86 1.81 1.78 1.78 1.71 1.62 1.60 1.49 1.19 1.20 1.19 1.14 1.06 0.98 0.90 0.86 0.82
0.78 0.77 0.83 0.83 0.86 0.92 1.03 1.19 1.25 1.37 1.41 1.51 1.54 1.56 1.63 1.73 1.80 1.75 1.70 1.66 1.74 1.61 1.54 1.20 1.18 1.15 1.10 1.01 0.88 0.81 0.82 0.82 0.81
0.78 0.67 0.70 0.74 0.83 0.91 0.98 1.14 1.22 1.31 1.39 1.54 1.66 1.66 1.66 1.65 1.67 1.66 1.55 1.70 1.54 1.57 1.19 1.13 1.14 1.07 0.99 0.83 0.73 0.74 0.80 0.86 0.82
0.81 0.71 0.69 0.74 0.79 0.89 0.98 1.09 1.22 1.22 1.35 1.55 1.62 1.62 1.60 1.58 1.52 1.47 1.47 1.51 1.51 1.31 1.07 1.10 1.05 0.97 0.84 0.75 0.71 0.73 0.76 0.79 0.74
0.83 0.82 0.76 0.72 0.87 0.95 1.06 1.14 1.20 1.28 1.39 1.43 1.48 1.50 1.48 1.51 1.47 1.43 1.51 1.52 1.40 1.08 1.04 1.01 0.93 0.84 0.81 0.74 0.67 0.71 0.71 0.66 0.64
0.89 0.91 0.83 0.82 0.93 0.99 1.07 1.12 1.20 1.23 1.25 1.33 1.32 1.34 1.40 1.49 1.52 1.49 1.51 1.39 1.17 1.00 0.98 0.91 0.84 0.82 0.72 0.63 0.63 0.66 0.64 0.67 0.68
0.88 1.02 0.92 0.90 1.01 1.02 1.07 1.13 1.18 1.13 1.13 1.17 1.22 1.37 1.45 1.57 1.55 1.50 1.43 1.24 0.98 0.97 0.94 0.86 0.83 0.75 0.73 0.68 0.62 0.64 0.65 0.73 0.72
0.91 0.88 0.89 0.97 1.04 1.05 1.07 1.16 1.15 1.00 1.07 1.11 1.37 1.49 1.55 1.53 1.52 1.49 1.37 1.13 0.95 0.94 0.90 0.88 0.84 0.79 0.76 0.72 0.67 0.65 0.71 0.76 0.76
1.03 0.91 0.97 0.96 1.01 1.12 1.21 1.23 1.14 0.97 1.02 1.29 1.42 1.46 1.48 1.48 1.54 1.46 1.24 0.95 0.93 0.96 0.89 0.87 0.84 0.81 0.78 0.81 0.76 0.72 0.71 0.76 0.83
1.08 1.01 1.00 1.04 1.03 1.15 1.26 1.25 1.18 1.07 1.07 1.29 1.31 1.35 1.40 1.44 1.50 1.34 1.11 0.90 0.89 0.89 0.89 0.83 0.79 0.82 0.83 0.81 0.84 0.80 0.75 0.71 0.74
1.13 1.05 1.01 1.11 1.11 1.19 1.20 1.24 1.21 1.28 1.18 1.23 1.25 1.29 1.35 1.40 1.36 1.18 1.00 0.92 0.92 0.87 0.86 0.81 0.76 0.78 0.85 0.92 0.87 0.85 0.80 0.77 0.76
1.22 1.18 1.11 1.12 1.12 1.21 1.23 1.30 1.27 1.30 1.23 1.18 1.19 1.28 1.31 1.34 1.30 1.12 0.89 0.88 0.89 0.87 0.91 0.83 0.76 0.80 0.89 0.93 0.88 0.88 0.84 0.85 0.86
1.24 1.26 1.31 1.15 1.22 1.29 1.32 1.35 1.31 1.34 1.20 1.19 1.15 1.18 1.24 1.25 1.18 1.02 0.85 0.83 0.83 0.90 0.88 0.80 0.79 0.87 0.95 1.01 1.04 0.97 0.89 0.87 0.90
1.23 1.35 1.44 1.25 1.21 1.29 1.35 1.37 1.37 1.34 1.19 1.19 1.14 1.17 1.22 1.18 1.10 0.92 0.79 0.79 0.79 0.73 0.76 0.73 0.76 0.82 0.91 0.96 0.95 0.96 0.91 0.87 0.89

GFSFLT1_prec_pwat_339.txt.gz
Precipitable_Water
1.05 1.19 1.24 1.46 1.50 1.54 1.54 1.63 1.68 1.67 1.63 1.71 1.83 1.95 1.98 1.91 1.93 1.90 1.83 1.89 1.92 1.98 2.08 2.12 2.17 2.22 2.24 2.31 2.25 1.95 1.78 1.78 1.66
0.98 1.14 1.29 1.37 1.49 1.54 1.56 1.60 1.62 1.62 1.63 1.75 1.81 1.85 2.00 1.92 1.97 1.88 1.84 1.93 2.07 2.02 2.14 2.15 2.25 2.32 2.29 2.17 1.90 1.85 1.67 1.46 1.31
1.01 1.15 1.21 1.39 1.45 1.52 1.52 1.59 1.61 1.62 1.70 1.74 1.76 1.78 1.83 1.91 1.91 1.91 1.96 2.03 1.97 2.09 2.25 2.27 2.32 2.16 2.02 1.82 1.70 1.47 1.30 1.26 1.21
0.96 1.07 1.20 1.28 1.43 1.45 1.47 1.51 1.54 1.56 1.75 1.70 1.70 1.74 1.79 1.79 1.82 1.83 1.94 1.96 2.09 2.19 2.14 2.11 2.00 1.84 1.66 1.54 1.30 1.25 1.20 1.17 1.16
0.95 1.07 1.19 1.29 1.36 1.39 1.40 1.36 1.44 1.52 1.69 1.73 1.78 1.69 1.69 1.74 1.80 1.89 2.03 2.18 2.20 2.07 1.87 1.93 1.69 1.62 1.44 1.22 1.20 1.22 1.13 1.06 1.06
0.91 0.97 1.11 1.25 1.30 1.28 1.27 1.28 1.41 1.48 1.59 1.69 1.73 1.77 1.74 1.76 1.79 1.92 1.99 1.93 1.80 1.79 1.72 1.76 1.58 1.32 1.16 1.18 1.19 1.08 1.02 0.97 0.91
0.92 0.96 1.06 1.17 1.19 1.19 1.21 1.23 1.35 1.42 1.51 1.69 1.66 1.75 1.70 1.73 1.78 1.85 1.84 1.70 1.67 1.64 1.59 1.50 1.29 1.20 1.19 1.13 1.06 0.98 0.94 0.92 0.89
0.86 0.91 1.02 1.10 1.11 1.14 1.16 1.19 1.27 1.36 1.47 1.60 1.56 1.61 1.68 1.79 1.87 1.80 1.67 1.64 1.64 1.75 1.56 1.43 1.20 1.15 1.11 1.04 0.91 0.91 0.89 0.90 0.86
0.88 0.80 0.92 1.01 1.05 1.09 1.11 1.17 1.23 1.33 1.41 1.51 1.51 1.57 1.60 1.81 1.83 1.73 1.66 1.66 1.63 1.62 1.50 1.18 1.15 1.08 0.99 0.87 0.88 0.84 0.85 0.92 0.86
0.87 0.76 0.84 0.92 0.94 0.98 1.06 1.18 1.25 1.26 1.39 1.50 1.48 1.58 1.76 1.67 1.69 1.64 1.61 1.59 1.51 1.49 1.23 1.11 1.05 1.03 0.94 0.78 0.70 0.75 0.81 0.83 0.78
0.90 0.82 0.77 0.81 0.86 1.00 1.12 1.29 1.34 1.34 1.42 1.44 1.56 1.60 1.60 1.61 1.58 1.51 1.53 1.55 1.49 1.44 1.13 1.06 1.03 0.92 0.84 0.73 0.69 0.70 0.72 0.72 0.78
0.99 0.91 0.87 0.81 0.86 1.00 1.15 1.24 1.36 1.37 1.40 1.53 1.58 1.46 1.50 1.53 1.49 1.51 1.47 1.52 1.48 1.25 1.04 1.03 0.94 0.89 0.79 0.72 0.66 0.69 0.66 0.79 0.76
1.01 1.01 0.97 0.93 0.91 1.05 1.19 1.23 1.37 1.35 1.37 1.42 1.43 1.50 1.45 1.52 1.55 1.55 1.57 1.59 1.37 1.08 1.04 0.95 0.94 0.86 0.81 0.73 0.68 0.67 0.73 0.79 0.77
1.09 0.97 1.04 1.03 1.02 1.04 1.11 1.22 1.28 1.27 1.31 1.27 1.41 1.53 1.53 1.56 1.59 1.60 1.63 1.55 1.23 1.00 0.95 0.93 0.93 0.80 0.75 0.68 0.66 0.65 0.74 0.79 0.83
1.11 0.94 1.06 1.08 1.05 1.11 1.22 1.29 1.25 1.21 1.15 1.35 1.45 1.51 1.48 1.52 1.59 1.62 1.58 1.40 1.07 0.99 0.96 0.93 0.90 0.79 0.74 0.72 0.68 0.68 0.72 0.78 0.87
1.20 1.02 1.03 1.10 1.06 1.14 1.29 1.38 1.31 1.14 1.13 1.33 1.46 1.41 1.39 1.49 1.59 1.64 1.55 1.24 0.97 0.95 0.95 0.93 0.88 0.79 0.77 0.74 0.75 0.72 0.74 0.76 0.81
1.31 1.25 1.10 1.09 1.10 1.16 1.28 1.43 1.43 1.29 1.18 1.21 1.40 1.33 1.35 1.46 1.53 1.55 1.48 1.18 1.01 0.94 0.90 0.90 0.89 0.84 0.82 0.81 0.79 0.77 0.75 0.75 0.77
1.25 1.36 1.28 1.20 1.17 1.20 1.29 1.42 1.42 1.48 1.38 1.21 1.17 1.31 1.36 1.40 1.48 1.50 1.39 1.07 0.94 0.94 0.96 0.94 0.86 0.87 0.95 0.91 0.84 0.87 0.83 0.80 0.83
1.21 1.35 1.43 1.34 1.27 1.26 1.39 1.49 1.50 1.55 1.54 1.42 1.13 1.17 1.28 1.34 1.37 1.41 1.29 0.97 0.89 0.96 0.99 0.96 0.92 0.93 0.96 1.04 1.02 0.98 0.92 0.85 0.89
1.14 1.29 1.43 1.47 1.42 1.36 1.42 1.46 1.48 1.59 1.60 1.51 1.27 1.11 1.20 1.30 1.33 1.31 1.15 0.89 0.82 0.77 0.87 0.91 0.87 0.86 0.92 1.01 0.99 0.98 0.94 0.85 0.88

GFSFLT1_prec_pwat_342.txt.gz
Precipitable_Water
1.12 1.21 1.25 1.33 1.47 1.51 1.58 1.52 1.55 1.59 1.57 1.61 1.77 1.88 1.87 1.89 1.93 1.98 1.99 1.93 1.94 1.88 1.94 2.05 2.27 2.15 2.24 2.23 2.37 2.17 1.90 1.78 1.64
1.07 1.12 1.30 1.38 1.42 1.54 1.59 1.58 1.58 1.59 1.49 1.64 1.75 1.87 1.96 1.94 1.90 1.98 1.87 1.88 2.00 1.97 2.06 2.21 2.10 2.19 2.28 2.29 2.21 1.96 1.75 1.36 1.18
0.98 1.05 1.17 1.39 1.39 1.48 1.54 1.56 1.61 1.65 1.48 1.62 1.79 1.90 1.93 1.93 1.96 1.94 1.88 1.94 1.96 1.96 2.09 2.21 2.34 2.35 2.30 2.18 1.95 1.64 1.36 1.19 1.17
0.94 1.06 1.20 1.31 1.45 1.43 1.47 1.54 1.57 1.55 1.60 1.68 1.72 1.80 1.91 1.88 1.91 1.90 1.96 1.97 1.92 2.15 2.35 2.32 2.27 2.21 2.03 1.67 1.44 1.23 1.18 1.14 1.12
1.06 1.17 1.25 1.33 1.58 1.42 1.41 1.45 1.50 1.58 1.64 1.67 1.65 1.76 1.76 1.84 1.88 1.88 1.87 1.93 2.15 2.23 2.21 2.26 2.22 1.79 1.54 1.29 1.17 1.19 1.15 1.09 0.99
1.12 1.19 1.23 1.28 1.53 1.39 1.31 1.34 1.46 1.55 1.57 1.66 1.71 1.67 1.68 1.73 1.76 1.79 1.96 2.17 2.23 2.05 2.00 1.92 1.73 1.51 1.21 1.10 1.13 1.11 1.04 0.95 0.84
1.03 1.08 1.10 1.25 1.33 1.26 1.26 1.29 1.45 1.49 1.55 1.68 1.73 1.60 1.59 1.62 1.67 1.82 2.10 1.99 1.88 1.80 1.77 1.61 1.52 1.26 1.12 1.14 1.09 1.03 0.93 0.84 0.83
0.94 0.93 0.98 1.18 1.18 1.17 1.20 1.26 1.37 1.46 1.49 1.54 1.67 1.67 1.56 1.60 1.65 1.88 1.86 1.73 1.70 1.71 1.61 1.51 1.38 1.11 1.13 1.06 1.00 0.96 0.89 0.90 0.86
0.96 0.92 0.99 1.13 1.14 1.16 1.14 1.21 1.28 1.38 1.42 1.49 1.59 1.54 1.58 1.71 1.83 1.75 1.70 1.64 1.67 1.61 1.55 1.46 1.09 1.09 0.98 1.00 0.97 0.92 0.91 0.92 0.87
0.94 0.91 0.98 1.05 1.11 1.11 1.11 1.14 1.20 1.28 1.37 1.50 1.56 1.52 1.61 1.72 1.73 1.65 1.58 1.61 1.64 1.51 1.44 1.22 1.08 1.03 1.01 0.91 0.91 0.84 0.84 0.86 0.83
0.93 0.80 0.88 0.97 1.09 1.11 1.12 1.19 1.24 1.34 1.42 1.42 1.48 1.50 1.64 1.69 1.65 1.59 1.59 1.55 1.52 1.45 1.43 1.10 1.06 1.04 0.95 0.79 0.72 0.73 0.73 0.77 0.77
0.98 0.90 0.84 0.89 1.01 1.07 1.06 1.13 1.22 1.28 1.30 1.37 1.45 1.52 1.54 1.54 1.50 1.47 1.48 1.46 1.52 1.50 1.39 1.05 1.07 1.00 0.88 0.70 0.66 0.69 0.70 0.80 0.81
1.13 1.03 0.94 0.85 0.87 1.08 1.05 1.17 1.27 1.23 1.18 1.26 1.28 1.40 1.51 1.53 1.52 1.48 1.46 1.48 1.49 1.54 1.27 1.04 1.01 0.97 0.86 0.72 0.61 0.66 0.75 0.83 0.85
1.21 1.14 1.04 0.90 0.87 1.02 1.07 1.24 1.26 1.19 1.22 1.15 1.31 1.45 1.54 1.49 1.56 1.53 1.54 1.59 1.57 1.45 1.10 1.00 0.98 0.93 0.79 0.68 0.64 0.66 0.76 0.81 0.84
1.20 1.37 1.10 1.02 0.95 1.04 1.16 1.32 1.33 1.25 1.18 1.29 1.42 1.52 1.44 1.47 1.54 1.56 1.60 1.60 1.52 1.33 1.02 0.95 0.94 0.85 0.69 0.69 0.66 0.73 0.78 0.83 0.89
0.86 1.33 1.39 1.09 1.05 1.13 1.16 1.27 1.36 1.24 1.32 1.38 1.39 1.36 1.38 1.48 1.53 1.56 1.66 1.57 1.41 1.17 0.99 0.91 0.88 0.80 0.66 0.66 0.70 0.73 0.79 0.81 0.87
1.11 1.31 1.37 1.17 1.20 1.23 1.18 1.26 1.38 1.40 1.43 1.47 1.39 1.18 1.32 1.45 1.44 1.52 1.64 1.60 1.40 1.11 0.89 0.86 0.85 0.80 0.71 0.74 0.73 0.71 0.78 0.82 0.84
1.05 1.20 1.40 1.45 1.36 1.30 1.18 1.25 1.40 1.58 1.53 1.51 1.30 1.25 1.25 1.29 1.41 1.50 1.59 1.56 1.40 1.06 0.93 0.86 0.82 0.81 0.81 0.84 0.77 0.77 0.75 0.76 0.78
0.97 1.10 1.36 1.52 1.65 1.40 1.30 1.34 1.45 1.59 1.67 1.63 1.42 1.21 1.20 1.20 1.28 1.43 1.52 1.49 1.32 1.11 0.98 0.94 0.95 0.96 0.92 0.98 0.96 0.89 0.83 0.76 0.75
0.89 1.12 1.24 1.42 1.64 1.69 1.45 1.43 1.53 1.61 1.73 1.68 1.51 1.27 1.22 1.19 1.25 1.24 1.36 1.38 1.19 0.91 0.89 0.94 0.95 0.97 0.98 1.03 1.02 0.97 0.89 0.83 0.76

GFSFLT1_prec_pwat_345.txt.gz
Precipitable_Water
1.42 1.21 1.27 1.33 1.40 1.42 1.47 1.57 1.57 1.58 1.51 1.47 1.63 1.75 1.82 1.91 1.99 2.00 1.97 1.96 1.98 1.93 1.99 1.99 2.05 2.12 2.14 2.22 2.26 2.32 2.05 1.76 1.59
1.22 1.23 1.37 1.50 1.56 1.65 1.57 1.60 1.52 1.49 1.48 1.47 1.67 1.77 1.87 1.84 1.89 1.99 1.96 2.01 2.03 1.99 1.99 2.02 2.16 2.24 2.19 2.26 2.25 2.17 1.82 1.42 1.16
1.15 1.21 1.28 1.43 1.42 1.51 1.57 1.53 1.54 1.51 1.48 1.48 1.71 1.85 1.91 1.91 1.85 1.98 2.05 1.99 1.98 1.97 2.00 2.08 2.16 2.23 2.27 2.25 2.15 1.85 1.41 1.17 1.12
1.06 1.11 1.25 1.34 1.37 1.55 1.44 1.47 1.51 1.50 1.50 1.52 1.76 1.93 1.92 1.95 1.91 1.99 1.92 1.86 1.98 2.00 2.09 2.20 2.30 2.34 2.25 2.06 1.67 1.43 1.17 1.13 1.07
1.27 1.11 1.23 1.34 1.43 1.50 1.47 1.47 1.48 1.51 1.54 1.53 1.80 1.83 1.92 1.91 1.95 1.93 1.91 1.92 1.91 2.13 2.14 2.35 2.35 2.24 1.86 1.53 1.23 1.17 1.09 1.03 0.94
1.25 1.36 1.28 1.35 1.43 1.54 1.39 1.38 1.42 1.52 1.54 1.67 1.69 1.74 1.84 1.89 1.88 1.88 1.83 1.89 2.09 2.21 2.23 2.38 2.20 1.73 1.42 1.15 1.13 1.12 1.08 0.94 0.84
1.15 1.14 1.23 1.29 1.37 1.42 1.30 1.31 1.38 1.49 1.48 1.64 1.62 1.65 1.65 1.73 1.80 1.77 1.94 2.06 2.00 2.06 2.07 1.88 1.64 1.51 1.15 1.14 1.11 1.04 0.94 0.83 0.77
1.08 1.13 1.23 1.23 1.27 1.20 1.23 1.28 1.34 1.47 1.50 1.63 1.62 1.51 1.56 1.58 1.66 1.75 1.92 1.73 1.85 1.81 1.73 1.59 1.54 1.19 1.18 1.16 1.05 0.92 0.87 0.86 0.80
1.08 1.19 1.19 1.17 1.20 1.17 1.19 1.23 1.24 1.37 1.45 1.55 1.65 1.48 1.52 1.58 1.49 1.64 1.63 1.68 1.66 1.66 1.66 1.54 1.37 1.18 1.13 1.02 1.00 0.89 0.93 0.90 0.80
0.99 1.00 1.08 1.10 1.14 1.15 1.14 1.21 1.21 1.26 1.38 1.48 1.51 1.54 1.57 1.58 1.50 1.58 1.65 1.62 1.60 1.59 1.49 1.46 1.22 1.10 1.02 0.96 0.95 0.91 0.93 0.91 0.81
1.13 0.90 0.87 1.05 1.12 1.15 1.16 1.29 1.24 1.29 1.36 1.42 1.47 1.56 1.56 1.54 1.52 1.58 1.56 1.57 1.57 1.54 1.51 1.39 1.15 1.01 0.95 0.91 0.86 0.81 0.89 0.87 0.85
1.33 1.12 1.00 0.98 1.04 1.12 1.11 1.23 1.29 1.19 1.25 1.30 1.40 1.49 1.54 1.59 1.53 1.51 1.57 1.53 1.56 1.54 1.47 1.35 1.09 1.02 0.93 0.78 0.74 0.77 0.81 0.81 0.77
0.92 1.20 1.17 1.12 1.00 1.11 1.02 1.16 1.20 1.13 1.14 1.21 1.29 1.41 1.46 1.49 1.46 1.48 1.49 1.52 1.56 1.54 1.49 1.27 1.02 0.96 0.92 0.67 0.69 0.74 0.79 0.78 0.72
1.17 1.23 1.24 1.24 1.15 1.00 0.97 1.10 1.15 1.04 1.10 1.10 1.24 1.36 1.39 1.43 1.44 1.46 1.55 1.61 1.59 1.53 1.44 1.20 0.97 0.94 0.87 0.69 0.69 0.71 0.76 0.78 0.77
1.33 1.37 1.27 1.25 1.21 1.12 1.01 1.03 1.10 1.07 1.07 1.24 1.31 1.34 1.30 1.33 1.37 1.50 1.57 1.59 1.55 1.49 1.34 1.09 0.92 0.90 0.82 0.72 0.69 0.74 0.78 0.81 0.84
1.26 1.36 1.39 1.46 1.36 1.24 1.13 1.06 1.13 1.04 1.14 1.27 1.29 1.31 1.24 1.25 1.36 1.47 1.59 1.55 1.48 1.37 1.26 1.05 0.88 0.84 0.77 0.67 0.69 0.71 0.79 0.82 0.85
1.29 1.21 1.09 1.21 1.35 1.34 1.36 1.14 1.15 1.21 1.32 1.29 1.24 1.19 1.22 1.24 1.28 1.36 1.53 1.56 1.48 1.35 1.20 1.03 0.85 0.81 0.78 0.68 0.68 0.69 0.79 0.80 0.83
1.23 1.30 1.10 1.10 1.06 1.22 1.36 1.43 1.16 1.39 1.48 1.41 1.18 1.12 1.16 1.21 1.31 1.35 1.43 1.51 1.45 1.37 1.31 1.11 0.82 0.80 0.81 0.71 0.67 0.69 0.70 0.76 0.78
0.98 1.13 1.31 1.58 1.49 1.37 1.46 1.50 1.26 1.35 1.55 1.58 1.39 1.21 1.14 1.14 1.22 1.30 1.34 1.39 1.38 1.48 1.42 1.21 0.96 0.91 0.87 0.84 0.77 0.77 0.70 0.73 0.75
0.76 1.00 1.16 1.47 1.57 1.79 1.70 1.60 1.44 1.39 1.58 1.64 1.60 1.41 1.28 1.22 1.23 1.19 1.17 1.25 1.28 1.23 1.32 1.26 0.99 0.89 0.89 0.89 0.86 0.89 0.86 0.70 0.71